Weather History for KCRV - January, 2003

Change the Weather History Date:

Thursday, January 2, 2003

  Actual Average Record
Temperature  
Mean Temperature 17 °F -  
Max Temperature 24 °F - - ()
Min Temperature 10 °F - - ()
Degree Days  
Heating Degree Days 48    
Moisture  
Dew Point 11 °F    
Average Humidity 77    
Maximum Humidity 93    
Minimum Humidity 58    
Precipitation  
Precipitation 0.00 in - - ()
Sea Level Pressure  
Sea Level Pressure 30.11 in    
Wind  
Wind Speed 40 mph (NW)    
Max Wind Speed 59 mph    
Max Gust Speed 72 mph    
Visibility 1 miles    
Events Snow    
T = Trace of Precipitation, MM = Missing Value Source: NWS Daily Summary

Daily Weather History Graph

Daily Weather History Graph

Search for Another Location

Airport or City:

Trip Planner

Search our weather history database for the weather conditions in past years. The results will help you decide how hot, cold, wet, or windy it might be!

Date:

Astronomy

Jan. 02, 2003 Rise Set
Actual Time 7:24 AM MST 4:48 PM MST
Civil Twilight 6:54 AM MST 5:18 PM MST
Nautical Twilight 6:20 AM MST 5:52 PM MST
Astronomical Twilight 5:47 AM MST 6:25 PM MST
Moon 7:30 AM MST (1/2) 4:38 PM MST (1/2)
Length of Visible Light 10h 24m
Length of Day
9h 23m
Waning Crescent, 0% of the Moon is Illuminated
Jan 2
Waning Crescent
Jan 2
New
Jan 10
First Quarter
Jan 18
Full
Jan 25
Last Quarter

Hourly Weather History & Observations

Time (MST) Temp. Windchill Dew Point Humidity Pressure Visibility Wind Dir Wind Speed Gust Speed Precip Events Conditions
12:09 AM 10.4 °F 0.8 °F 5.0 °F 79% 30.13 in 10.0 mi ENE 5.8 mph - N/A   Clear
12:29 AM 12.2 °F -9.3 °F 6.8 °F 79% 30.10 in 0.8 mi WNW 29.9 mph 39.1 mph N/A Snow Snow
12:49 AM 10.4 °F -13.0 °F 6.8 °F 85% 30.08 in 0.2 mi WNW 34.5 mph 43.7 mph N/A Snow Heavy Snow
1:09 AM 12.2 °F -12.3 °F 6.8 °F 79% 30.06 in 0.2 mi WNW 42.6 mph 49.5 mph N/A Snow Heavy Snow
1:29 AM 12.2 °F -12.5 °F 6.8 °F 79% 30.06 in 0.2 mi NW 43.7 mph 51.8 mph N/A Snow Heavy Snow
1:49 AM 12.2 °F -10.8 °F 5.0 °F 73% 30.09 in 0.8 mi NW 35.7 mph 47.2 mph N/A Snow Light Snow
2:10 AM 12.2 °F -11.8 °F 5.0 °F 73% 30.08 in 0.8 mi NW 40.3 mph 50.6 mph N/A Snow Light Snow
2:29 AM 12.2 °F -12.3 °F 5.0 °F 73% 30.07 in 0.5 mi NW 42.6 mph 57.5 mph N/A Snow Snow
2:49 AM 12.2 °F -12.3 °F 3.2 °F 67% 30.07 in 0.5 mi NW 42.6 mph 52.9 mph N/A Snow Snow
3:09 AM 12.2 °F -14.3 °F 6.8 °F 79% 30.02 in 0.2 mi NW 52.9 mph 59.8 mph N/A Snow Heavy Snow
3:29 AM 12.2 °F -14.3 °F 8.6 °F 85% 30.00 in 0.2 mi NW 52.9 mph 63.3 mph N/A Snow Heavy Snow
3:49 AM 12.2 °F -15.1 °F 8.6 °F 85% 29.99 in 0.2 mi NW 57.5 mph 69.0 mph N/A Snow Heavy Snow
4:09 AM 14.0 °F -12.1 °F 6.8 °F 73% 30.01 in 0.2 mi NW 55.2 mph 66.7 mph N/A Snow Heavy Snow
4:29 AM 14.0 °F -12.1 °F 6.8 °F 73% 30.01 in 0.2 mi NW 55.2 mph 70.2 mph N/A Snow Heavy Snow
4:49 AM 12.2 °F -15.2 °F 5.0 °F 73% 30.01 in 0.2 mi NW 58.7 mph 71.3 mph N/A Snow Heavy Snow
5:09 AM 12.2 °F -15.1 °F 5.0 °F 73% 30.03 in 0.2 mi NW 57.5 mph 69.0 mph N/A Snow Heavy Snow
5:29 AM 12.2 °F -14.9 °F 5.0 °F 73% 30.04 in 0.2 mi NW 56.4 mph 72.5 mph N/A Snow Heavy Snow
5:49 AM 12.2 °F -14.9 °F 5.0 °F 73% 30.05 in 0.2 mi NW 56.4 mph 66.7 mph N/A Snow Heavy Snow
6:10 AM 14.0 °F -11.3 °F 3.2 °F 62% 30.08 in 0.2 mi NW 50.6 mph 62.1 mph N/A Snow Heavy Snow
6:30 AM 14.0 °F -11.3 °F 3.2 °F 62% 30.09 in 0.5 mi NW 50.6 mph 62.1 mph N/A Snow Snow
6:49 AM 14.0 °F -11.9 °F 5.0 °F 67% 30.09 in 0.2 mi NW 54.1 mph 62.1 mph N/A Snow Snow
7:09 AM 14.0 °F -11.7 °F 5.0 °F 67% 30.08 in 0.2 mi WNW 52.9 mph 63.3 mph N/A Snow Heavy Snow
7:29 AM 15.8 °F -8.8 °F 5.0 °F 62% 30.10 in 0.2 mi NW 50.6 mph 63.3 mph N/A Snow Snow
7:49 AM 15.8 °F -8.8 °F 3.2 °F 58% 30.12 in 0.2 mi WNW 50.6 mph 57.5 mph N/A Snow Snow
8:09 AM 15.8 °F -8.1 °F 3.2 °F 58% 30.15 in 0.5 mi NW 47.2 mph 52.9 mph N/A Snow Light Snow
8:29 AM 17.6 °F -4.7 °F 8.6 °F 68% 30.15 in 0.8 mi NW 42.6 mph 51.8 mph N/A Snow Light Snow
8:49 AM 17.6 °F -5.0 °F 5.0 °F 58% 30.16 in 0.8 mi WNW 43.7 mph 52.9 mph N/A Snow Light Snow
9:09 AM 15.8 °F -7.5 °F 3.2 °F 58% 30.17 in 0.8 mi NW 43.7 mph 54.1 mph N/A Snow Light Snow
9:29 AM 15.8 °F -7.3 °F 3.2 °F 58% 30.19 in 0.8 mi NW 42.6 mph 51.8 mph N/A Snow Light Snow
9:49 AM 15.8 °F -6.1 °F 5.0 °F 62% 30.20 in 1.5 mi NW 36.8 mph 48.3 mph N/A Snow Light Snow
10:09 AM 19.4 °F -2.2 °F 14.0 °F 80% 30.16 in 1.2 mi NW 42.6 mph 50.6 mph N/A Snow Light Snow
10:29 AM 19.4 °F -2.7 °F 14.0 °F 80% 30.15 in 0.5 mi WNW 44.9 mph 57.5 mph N/A Snow Light Snow
10:49 AM 21.2 °F -0.9 °F 17.6 °F 86% 30.13 in 0.2 mi WNW 49.5 mph 57.5 mph N/A Snow Heavy Snow
11:10 AM 21.2 °F -1.1 °F 17.6 °F 86% 30.14 in 0.2 mi WNW 50.6 mph 59.8 mph N/A Snow Heavy Snow
11:30 AM 21.2 °F -0.7 °F 19.4 °F 93% 30.13 in 0.2 mi WNW 48.3 mph 59.8 mph N/A Snow Snow
11:49 AM 21.2 °F -1.3 °F 19.4 °F 93% 30.11 in 0.2 mi WNW 51.8 mph 58.7 mph N/A Snow Heavy Snow
12:10 PM 21.2 °F -1.1 °F 17.6 °F 86% 30.11 in 0.2 mi WNW 50.6 mph 63.3 mph N/A Snow Heavy Snow
12:29 PM 21.2 °F -1.3 °F 17.6 °F 86% 30.11 in 0.2 mi WNW 51.8 mph 61.0 mph N/A Snow Heavy Snow
12:49 PM 23.0 °F 1.5 °F 19.4 °F 86% 30.12 in 0.2 mi WNW 50.6 mph 59.8 mph N/A Snow Snow
1:09 PM 24.8 °F 3.9 °F 19.4 °F 80% 30.12 in 0.8 mi NW 51.8 mph 59.8 mph N/A Snow Light Snow
1:29 PM 23.0 °F 3.4 °F 19.4 °F 86% 30.18 in 2.5 mi NNW 39.1 mph 52.9 mph N/A   Clear
1:49 PM 21.2 °F 3.5 °F 17.6 °F 86% 30.19 in 7.0 mi NW 27.6 mph 41.4 mph N/A   Clear
2:10 PM 21.2 °F 0.7 °F 17.6 °F 86% 30.16 in 1.8 mi WNW 40.3 mph 47.2 mph N/A   Scattered Clouds
2:29 PM 21.2 °F 1.4 °F 17.6 °F 86% 30.18 in 2.0 mi WNW 36.8 mph 46.0 mph N/A   Scattered Clouds
2:49 PM 21.2 °F 0.7 °F 17.6 °F 86% 30.18 in 1.2 mi WNW 40.3 mph 49.5 mph N/A   Mostly Cloudy
3:09 PM 21.2 °F 0.1 °F 17.6 °F 86% 30.18 in 1.2 mi NW 43.7 mph 49.5 mph N/A   Overcast
3:29 PM 19.4 °F -2.7 °F 17.6 °F 93% 30.18 in 1.0 mi NW 44.9 mph 54.1 mph N/A   Overcast
3:49 PM 19.4 °F -2.0 °F 15.8 °F 86% 30.19 in 1.0 mi NW 41.4 mph 56.4 mph N/A Snow Light Snow
4:09 PM 19.4 °F -3.1 °F 15.8 °F 86% 30.17 in 1.2 mi NW 47.2 mph 56.4 mph N/A Snow Light Snow
4:29 PM 19.4 °F -2.2 °F 15.8 °F 86% 30.18 in 2.0 mi NW 42.6 mph 54.1 mph N/A   Mostly Cloudy
4:49 PM 21.2 °F -0.1 °F 15.8 °F 80% 30.18 in 3.0 mi NW 44.9 mph 54.1 mph N/A   Haze
5:09 PM 21.2 °F 0.1 °F 15.8 °F 80% 30.18 in 5.0 mi NW 43.7 mph 54.1 mph N/A   Haze
5:29 PM 23.0 °F 2.0 °F 15.8 °F 74% 30.17 in 7.0 mi NW 47.2 mph 56.4 mph N/A   Clear
5:49 PM 23.0 °F 3.2 °F 15.8 °F 74% 30.20 in 10.0 mi NW 40.3 mph 55.2 mph N/A   Clear
6:09 PM 21.2 °F 3.3 °F 17.6 °F 86% 30.24 in 10.0 mi NW 28.8 mph 47.2 mph N/A   Clear
6:31 PM 21.2 °F 1.2 °F 17.6 °F 86% 30.23 in 4.0 mi NW 38.0 mph 48.3 mph N/A   Scattered Clouds
6:52 PM 21.2 °F 1.9 °F 19.4 °F 93% 30.23 in 3.0 mi NW 34.5 mph 46.0 mph N/A   Scattered Clouds
7:09 PM 23.0 °F 4.4 °F 17.6 °F 80% 30.24 in 7.0 mi NW 34.5 mph 47.2 mph N/A   Scattered Clouds
7:29 PM 21.2 °F 2.4 °F 19.4 °F 93% 30.26 in 7.0 mi NNW 32.2 mph 40.3 mph N/A   Scattered Clouds
7:49 PM 21.2 °F 1.9 °F 19.4 °F 93% 30.27 in 3.0 mi NNW 34.5 mph 48.3 mph N/A   Overcast
8:09 PM 23.0 °F 6.0 °F 21.2 °F 93% 30.27 in 3.0 mi NW 27.6 mph 44.9 mph N/A   Overcast
8:29 PM 24.8 °F 8.4 °F 21.2 °F 86% 30.27 in 2.0 mi NNW 27.6 mph 48.3 mph N/A Snow Light Snow
8:49 PM 24.8 °F 10.3 °F 21.2 °F 86% 30.28 in 1.5 mi WNW 20.7 mph 44.9 mph N/A Snow Light Snow
9:10 PM 23.0 °F 4.9 °F 21.2 °F 93% 30.25 in 1.5 mi NW 32.2 mph 43.7 mph N/A Snow Light Snow
9:29 PM 24.8 °F 5.5 °F 23.0 °F 93% 30.22 in 0.8 mi NW 41.4 mph 49.5 mph N/A Snow Snow
9:50 PM 24.8 °F 6.8 °F 21.2 °F 86% 30.23 in 1.0 mi NW 34.5 mph 50.6 mph N/A Snow Light Snow
10:09 PM 24.8 °F 6.0 °F 21.2 °F 86% 30.23 in 0.8 mi NW 39.1 mph 52.9 mph N/A Snow Light Snow
10:29 PM 24.8 °F 5.5 °F 23.0 °F 93% 30.23 in 0.5 mi NW 41.4 mph 54.1 mph N/A Snow Snow
10:49 PM 24.8 °F 5.3 °F 23.0 °F 93% 30.22 in 0.5 mi NW 42.6 mph 55.2 mph N/A Snow Snow
11:09 PM 24.8 °F 6.4 °F 21.2 °F 86% 30.24 in 0.8 mi NW 36.8 mph 51.8 mph N/A Snow Light Snow
11:29 PM 24.8 °F 6.8 °F 23.0 °F 93% 30.25 in 1.0 mi NNW 34.5 mph 49.5 mph N/A Snow Light Snow
11:49 PM 24.8 °F 6.2 °F 23.0 °F 93% 30.25 in 0.8 mi NNW 38.0 mph 49.5 mph N/A Snow Light Snow